Location: *
(50.2903°S, 172.5375°W)
Time: 00:35:19
(UTC+00:00)

Resurs 1-4 Rocket - Pass Details

Date: 01 March 2020
Orbit: 800 x 813 km, 98.6° (Epoch: 28 March)

Event Time Altitude Azimuth Distance (km) Brightness Sun altitude
Exits shadow 10:51:04 26° 123° (ESE) 1,576 3.7 -31.3°
Drops below altitude 10° 10:55:18 10° 175° (S) 2,419 5.4 -31.5°
Sets 10:58:00 0° 187° (S) 3,356 6.4 -31.6°
